DW9636 Weather Reports


Display with metric or nautical units.
time (UTC)temp
F
wind
direction
speed
MPH
gust
MPH
rain 1hr
in
rain 24hr
in
rain mn
in
humidity
%
barometer
mb
20260505054554 50 298 0.0 0.0 0.00 0.00 0.00 73 1007.3
20260505053033 51 298 0.0 0.0 0.00 0.00 0.00 72 1007.3
20260505051533 52 298 0.0 0.0 0.00 0.00 0.00 70 1007.2
20260505041528 57 298 0.0 0.0 0.00 0.00 0.00 59 1006.5
20260505040028 59 298 0.0 0.0 0.00 0.00 0.00 57 1006.2
20260505034527 60 298 0.0 0.0 0.00 0.00 0.00 55 1006.0
20260505033027 61 298 0.0 0.0 0.00 0.00 0.00 54 1005.6
20260505031540 62 298 0.0 0.0 0.00 0.00 0.00 52 1005.4
20260505030026 63 298 0.0 0.0 0.00 0.00 0.00 50 1005.0
20260505024534 64 294 0.0 0.0 0.00 0.00 0.00 48 1004.8
20260505023028 65 22 0.0 0.0 0.00 0.00 0.00 47 1004.7
20260505021527 67 330 0.0 0.0 0.00 0.00 0.00 46 1004.6
20260505020030 67 336 1.0 0.0 0.00 0.00 0.00 45 1004.4
20260505014528 68 338 1.0 0.0 0.00 0.00 0.00 43 1004.6
20260505013024 68 304 0.0 0.0 0.00 0.00 0.00 41 1004.7
20260505011530 69 323 0.0 0.0 0.00 0.00 0.00 39 1004.8
20260505010019 71 326 1.0 0.0 0.00 0.00 0.00 37 1004.8
20260505004537 71 323 0.0 0.0 0.00 0.00 0.00 39 1004.9
20260505003017 71 324 1.0 0.0 0.00 0.00 0.00 40 1004.9
20260505001519 70 315 0.0 0.0 0.00 0.00 0.00 39 1004.9
20260505000033 72 295 1.0 0.0 0.00 0.00 0.00 39 1005.1
20260504234514 71 326 0.0 0.0 0.00 0.00 0.00 35 1005.1
20260504233014 71 323 0.0 0.0 0.00 0.00 0.00 39 1005.2
20260504231512 72 313 0.0 0.0 0.00 0.00 0.00 37 1005.3
20260504230011 74 327 1.0 0.0 0.00 0.00 0.00 31 1005.4
20260504224510 74 330 0.0 0.0 0.00 0.00 0.00 30 1005.5
20260504223007 74 325 0.0 0.0 0.00 0.00 0.00 31 1005.6
20260504221509 74 326 1.0 0.0 0.00 0.00 0.00 29 1005.7
20260504220011 76 133 1.0 0.0 0.00 0.00 0.00 28 1005.7
20260504214502 74 13 1.0 0.0 0.00 0.00 0.00 29 1005.9
20260504213002 75 44 1.0 0.0 0.00 0.00 0.00 27 1005.9
20260504211502 76 26 0.0 0.0 0.00 0.00 0.00 28 1006.2
20260504210059 76 5 1.0 0.0 0.00 0.00 0.00 27 1006.1
20260504204603 73 320 0.0 0.0 0.00 0.00 0.00 33 1006.2
20260504203107 73 331 0.0 0.0 0.00 0.00 0.00 29 1006.3
20260504201600 74 346 0.0 0.0 0.00 0.00 0.00 30 1006.3
20260504200056 75 11 1.0 0.0 0.00 0.00 0.00 28 1006.4
20260504194551 73 286 0.0 0.0 0.00 0.00 0.00 34 1006.5
20260504193049 72 308 0.0 0.0 0.00 0.00 0.00 35 1006.7
20260504191548 70 13 0.0 0.0 0.00 0.00 0.00 39 1006.8
20260504190046 71 338 0.0 0.0 0.00 0.00 0.00 37 1007.0
20260504184545 71 351 0.0 0.0 0.00 0.00 0.00 37 1007.2
20260504183042 72 340 1.0 0.0 0.00 0.00 0.00 35 1007.3
20260504181540 71 296 1.0 0.0 0.00 0.00 0.00 39 1007.4
20260504180037 70 342 0.0 0.0 0.00 0.00 0.00 41 1007.4
20260504174534 68 338 0.0 0.0 0.00 0.00 0.00 40 1007.6
20260504173029 66 323 0.0 0.0 0.00 0.00 0.00 44 1007.8
20260504171524 64 283 0.0 0.0 0.00 0.00 0.00 49 1008.0
20260504081600 42 309 0.0 0.0 0.00 0.00 0.00 80 1008.4